Helicity
166 144 141 129 122 119 118 113 128 128 113 103 111 119 135 161 168 175 202 193 196 199
206 181 170 153 133 128 130 136 139 139 140 134 132 142 161 192 194 215 214 222 239 251
233 224 203 184 163 149 136 136 138 143 159 170 190 189 184 233 279 321 338 314 281 242
269 253 230 200 180 164 163 169 166 172 168 174 181 192 219 269 314 350 337 300 255 235
212 204 204 209 206 198 199 200 183 167 163 161 182 185 188 209 240 250 269 265 247 230
203 211 215 204 200 188 173 171 167 153 158 163 177 192 209 220 248 281 278 259 249 226
160 166 176 167 154 140 129 128 150 160 152 155 173 200 216 235 266 292 290 276 259 227
120 97 83 76 80 90 97 110 111 127 152 162 184 189 205 222 231 254 275 279 252 230
77 66 46 30 33 55 79 100 145 154 154 154 162 160 174 199 223 228 232 242 246 221
75 52 23 4 12 48 99 114 143 148 149 170 162 143 170 188 222 219 204 176 180 171
85 52 -9 -33 10 74 124 130 139 158 171 167 163 152 160 190 201 193 165 138 125 115
98 88 36 -9 52 91 113 137 158 155 156 154 145 138 120 141 151 144 129 114 93 78
129 115 103 58 91 108 102 123 127 141 131 108 104 90 92 100 100 109 105 85 60 53
123 111 132 115 130 122 117 129 138 134 118 103 84 83 74 79 84 73 63 49 48 47
Wind_Speed
41 42 44 44 46 47 49 49 48 49 51 50 48 48 44 43 44 41 41 41 41 44
41 40 40 40 44 48 50 52 54 55 57 59 57 54 52 51 48 44 41 40 40 40
45 43 45 46 47 49 51 54 56 58 60 60 61 59 55 51 46 42 40 38 37 37
46 48 48 51 52 55 56 57 59 59 57 56 54 52 48 43 38 37 36 35 36 38
48 49 52 54 55 53 55 51 50 49 49 51 48 45 43 41 37 37 33 36 35 36
48 50 52 52 50 50 49 48 46 46 48 49 48 45 43 40 37 36 37 35 34 33
42 45 47 49 48 46 45 45 45 45 44 43 43 41 39 38 36 33 34 33 32 33
38 39 41 44 46 47 46 43 40 40 42 42 41 40 35 34 33 30 29 30 29 28
38 40 41 42 44 44 44 41 40 40 37 39 41 34 30 26 25 23 22 21 21 23
38 41 41 42 44 43 42 40 36 35 33 34 33 31 25 20 19 18 17 17 18 19
36 40 43 45 45 42 37 37 32 33 31 28 28 27 21 18 16 15 17 16 16 16
37 40 44 45 41 38 34 30 30 26 22 23 22 18 14 12 12 12 13 14 15 16
35 38 38 38 35 33 31 26 22 21 19 17 16 13 11 10 9 9 11 14 15 18
34 37 33 30 30 25 23 21 22 19 19 17 14 9 7 8 10 9 10 13 17 21
Wind_Direction
281 281 281 284 286 288 289 291 295 295 294 295 295 296 296 296 298 299 299 301 304 309
279 282 283 286 288 288 291 292 294 294 294 293 295 296 295 295 295 296 298 301 304 309
277 281 284 286 289 291 294 295 296 296 296 296 296 296 295 295 295 294 298 303 305 310
281 283 286 287 290 291 294 295 295 296 298 298 300 301 300 299 299 294 298 304 306 310
285 286 288 289 290 294 294 298 299 300 301 300 302 303 301 300 300 299 297 305 306 309
288 288 289 291 294 295 295 296 299 301 300 301 301 302 300 300 301 303 304 305 308 311
291 291 290 292 294 297 297 298 300 302 304 305 304 304 302 301 301 305 308 311 313 315
297 297 296 294 295 296 298 299 302 305 305 303 304 304 304 303 303 306 311 315 321 325
298 297 299 298 297 298 298 299 302 303 305 304 303 307 307 307 308 314 318 324 335 335
298 297 301 299 297 298 298 299 305 302 305 305 306 305 310 317 318 323 334 339 336 339
302 302 299 296 295 295 300 298 305 302 307 310 310 302 311 315 327 340 331 337 346 349
300 300 296 295 293 295 299 303 303 309 319 318 317 318 325 331 336 341 349 351 350 358
303 300 301 298 296 298 299 302 307 315 325 326 329 330 331 342 5 7 0 351 354 358
302 299 303 306 301 302 305 306 300 309 315 317 319 333 357 352 342 358 357 355 356 356